Location: Johnson City
(36.3130°N, 82.3540°W)
Time: 09:23:13
(UTC-05:00)

ISS - Pass Details

Date: 03 December 2021
Orbit: 413 x 422 km, 51.6° (Epoch: 18 January)

Event Time Altitude Azimuth Distance (km) Brightness Sun altitude
Rises 18:50:56 0° 321° (NW) 2,378 0.4 -19.0°
Reaches altitude 10° 18:53:25 10° 339° (NNW) 1,508 -0.9 -19.5°
Enters shadow 18:54:18 14° 351° (N) 1,265 -1.4 -19.7°
